Time,TemperatureF,DewpointF,PressureIn,WindDirection,WindDirectionDegrees,WindSpeedMPH,WindSpeedGustMPH,Humidity,HourlyPrecipIn,Conditions,Clouds,dailyrainin,SoftwareType,DateUTC
2013-02-04 00:01:00,31.0,25.0,-100.00,ESE,104,2.0,4.0,79,-99.99,,,-99.99,,2013-02-04 08:01:00,
2013-02-04 00:11:00,32.0,25.0,-100.00,East,95,3.0,6.0,76,-99.99,,,-99.99,,2013-02-04 08:11:00,
2013-02-04 00:21:00,32.0,25.0,-100.00,East,95,3.0,6.0,76,-99.99,,,-99.99,,2013-02-04 08:21:00,
2013-02-04 00:31:00,30.0,24.0,-100.00,SE,137,2.0,6.0,79,-99.99,,,-99.99,,2013-02-04 08:31:00,
2013-02-04 00:41:00,30.0,24.0,-100.00,SE,137,2.0,6.0,79,-99.99,,,-99.99,,2013-02-04 08:41:00,
2013-02-04 00:52:00,31.0,25.0,-100.00,ESE,107,4.0,6.0,77,-99.99,,,-99.99,,2013-02-04 08:52:00,
2013-02-04 01:01:00,31.0,25.0,-100.00,ESE,107,4.0,6.0,77,-99.99,,,-99.99,,2013-02-04 09:01:00,
2013-02-04 01:11:00,32.0,24.0,-100.00,ESE,116,2.0,5.0,71,-99.99,,,-99.99,,2013-02-04 09:11:00,
2013-02-04 01:21:00,32.0,24.0,-100.00,ESE,116,2.0,5.0,71,-99.99,,,-99.99,,2013-02-04 09:21:00,
2013-02-04 01:31:00,30.0,23.0,-100.00,NW,322,4.0,8.0,77,-99.99,,,-99.99,,2013-02-04 09:31:00,
2013-02-04 01:41:00,30.0,23.0,-100.00,NW,322,4.0,8.0,77,-99.99,,,-99.99,,2013-02-04 09:41:00,
2013-02-04 01:52:00,29.0,24.0,-100.00,East,89,2.0,4.0,83,-99.99,,,-99.99,,2013-02-04 09:52:00,
2013-02-04 02:01:00,29.0,24.0,-100.00,East,89,2.0,4.0,83,-99.99,,,-99.99,,2013-02-04 10:01:00,
2013-02-04 02:11:00,29.0,24.0,-100.00,SE,128,3.0,5.0,80,-99.99,,,-99.99,,2013-02-04 10:11:00,
2013-02-04 02:21:00,29.0,24.0,-100.00,SE,128,3.0,5.0,80,-99.99,,,-99.99,,2013-02-04 10:21:00,
2013-02-04 02:32:00,29.0,24.0,-100.00,SSE,161,3.0,6.0,82,-99.99,,,-99.99,,2013-02-04 10:32:00,
2013-02-04 02:41:00,29.0,24.0,-100.00,SSE,161,3.0,6.0,82,-99.99,,,-99.99,,2013-02-04 10:41:00,
2013-02-04 02:52:00,32.0,24.0,-100.00,SSE,151,5.0,7.0,74,-99.99,,,-99.99,,2013-02-04 10:52:00,
2013-02-04 03:01:00,32.0,24.0,-100.00,SSE,151,5.0,7.0,74,-99.99,,,-99.99,,2013-02-04 11:01:00,
2013-02-04 03:11:00,29.0,23.0,-100.00,SE,143,2.0,6.0,79,-99.99,,,-99.99,,2013-02-04 11:11:00,
2013-02-04 03:22:00,29.0,23.0,-100.00,SE,143,2.0,6.0,79,-99.99,,,-99.99,,2013-02-04 11:22:00,
2013-02-04 03:32:00,30.0,23.0,-100.00,SSE,147,1.0,2.0,75,-99.99,,,-99.99,,2013-02-04 11:32:00,
2013-02-04 03:42:00,30.0,23.0,-100.00,SSE,147,1.0,2.0,75,-99.99,,,-99.99,,2013-02-04 11:42:00,
2013-02-04 03:52:00,28.0,23.0,-100.00,NE,45,2.0,3.0,81,-99.99,,,-99.99,,2013-02-04 11:52:00,
2013-02-04 04:02:00,28.0,23.0,-100.00,NE,45,2.0,3.0,81,-99.99,,,-99.99,,2013-02-04 12:02:00,
2013-02-04 04:12:00,26.0,23.0,-100.00,ESE,107,2.0,6.0,85,-99.99,,,-99.99,,2013-02-04 12:12:00,
2013-02-04 04:21:00,26.0,23.0,-100.00,ESE,107,2.0,6.0,85,-99.99,,,-99.99,,2013-02-04 12:21:00,
2013-02-04 04:32:00,26.0,22.0,-100.00,ESE,109,4.0,5.0,84,-99.99,,,-99.99,,2013-02-04 12:32:00,
2013-02-04 04:42:00,26.0,22.0,-100.00,ESE,109,4.0,5.0,84,-99.99,,,-99.99,,2013-02-04 12:42:00,
2013-02-04 04:53:00,26.0,22.0,-100.00,ESE,116,4.0,5.0,85,-99.99,,,-99.99,,2013-02-04 12:53:00,
2013-02-04 05:02:00,26.0,22.0,-100.00,ESE,116,4.0,5.0,85,-99.99,,,-99.99,,2013-02-04 13:02:00,
2013-02-04 05:11:00,25.0,22.0,-100.00,SE,145,1.0,4.0,87,-99.99,,,-99.99,,2013-02-04 13:11:00,
2013-02-04 05:21:00,25.0,22.0,-100.00,SE,145,1.0,4.0,87,-99.99,,,-99.99,,2013-02-04 13:21:00,
2013-02-04 05:32:00,25.0,21.0,-100.00,South,178,1.0,2.0,86,-99.99,,,-99.99,,2013-02-04 13:32:00,
2013-02-04 05:41:00,25.0,21.0,-100.00,South,178,1.0,2.0,86,-99.99,,,-99.99,,2013-02-04 13:41:00,
2013-02-04 05:52:00,25.0,22.0,-100.00,ENE,76,1.0,3.0,85,-99.99,,,-99.99,,2013-02-04 13:52:00,
2013-02-04 06:02:00,25.0,22.0,-100.00,ENE,76,1.0,3.0,85,-99.99,,,-99.99,,2013-02-04 14:02:00,
2013-02-04 06:11:00,25.0,21.0,-100.00,East,99,4.0,6.0,86,-99.99,,,-99.99,,2013-02-04 14:11:00,
2013-02-04 06:21:00,25.0,21.0,-100.00,East,99,4.0,6.0,86,-99.99,,,-99.99,,2013-02-04 14:21:00,
2013-02-04 06:32:00,24.0,21.0,-100.00,ESE,106,2.0,4.0,86,-99.99,,,-99.99,,2013-02-04 14:32:00,
2013-02-04 06:42:00,24.0,21.0,-100.00,ESE,106,2.0,4.0,86,-99.99,,,-99.99,,2013-02-04 14:42:00,
2013-02-04 06:52:00,24.0,21.0,-100.00,SE,131,1.0,4.0,89,-99.99,,,-99.99,,2013-02-04 14:52:00,
2013-02-04 07:03:00,24.0,21.0,-100.00,SE,131,1.0,4.0,89,-99.99,,,-99.99,,2013-02-04 15:03:00,
2013-02-04 07:12:00,24.0,22.0,-100.00,ESE,104,1.0,2.0,90,-99.99,,,-99.99,,2013-02-04 15:12:00,
2013-02-04 07:23:00,24.0,22.0,-100.00,ESE,104,1.0,2.0,90,-99.99,,,-99.99,,2013-02-04 15:23:00,
2013-02-04 07:33:00,24.0,21.0,-100.00,ESE,114,4.0,5.0,88,-99.99,,,-99.99,,2013-02-04 15:33:00,
2013-02-04 07:43:00,24.0,21.0,-100.00,ESE,114,4.0,5.0,88,-99.99,,,-99.99,,2013-02-04 15:43:00,
2013-02-04 07:52:00,25.0,21.0,-100.00,ESE,112,5.0,6.0,86,-99.99,,,-99.99,,2013-02-04 15:52:00,
2013-02-04 08:02:00,25.0,21.0,-100.00,ESE,112,5.0,6.0,86,-99.99,,,-99.99,,2013-02-04 16:02:00,
2013-02-04 08:11:00,25.0,22.0,-100.00,SW,216,1.0,2.0,89,-99.99,,,-99.99,,2013-02-04 16:11:00,
2013-02-04 08:22:00,25.0,22.0,-100.00,SW,216,1.0,2.0,89,-99.99,,,-99.99,,2013-02-04 16:22:00,
2013-02-04 08:32:00,25.0,22.0,-100.00,SW,216,1.0,2.0,89,-99.99,,,-99.99,,2013-02-04 16:32:00,
2013-02-04 08:42:00,25.0,22.0,-100.00,SW,216,1.0,2.0,89,-99.99,,,-99.99,,2013-02-04 16:42:00,
2013-02-04 09:52:00,36.0,25.0,-100.00,WSW,253,1.0,2.0,65,-99.99,,,-99.99,,2013-02-04 17:52:00,
2013-02-04 10:03:00,36.0,25.0,-100.00,WSW,253,1.0,2.0,65,-99.99,,,-99.99,,2013-02-04 18:03:00,
2013-02-04 10:11:00,39.0,26.0,-100.00,South,191,0.0,2.0,59,-99.99,,,-99.99,,2013-02-04 18:11:00,
2013-02-04 10:21:00,39.0,26.0,-100.00,South,191,0.0,2.0,59,-99.99,,,-99.99,,2013-02-04 18:21:00,
2013-02-04 10:31:00,40.0,25.0,-100.00,West,278,1.0,3.0,56,-99.99,,,-99.99,,2013-02-04 18:31:00,
2013-02-04 10:41:00,40.0,25.0,-100.00,West,278,1.0,3.0,56,-99.99,,,-99.99,,2013-02-04 18:41:00,
2013-02-04 10:52:00,41.0,25.0,-100.00,WNW,287,2.0,4.0,52,-99.99,,,-99.99,,2013-02-04 18:52:00,
2013-02-04 11:01:00,41.0,25.0,-100.00,WNW,287,2.0,4.0,52,-99.99,,,-99.99,,2013-02-04 19:01:00,
2013-02-04 11:11:00,42.0,25.0,-100.00,SW,226,2.0,4.0,49,-99.99,,,-99.99,,2013-02-04 19:11:00,
2013-02-04 11:22:00,42.0,25.0,-100.00,SW,226,2.0,4.0,49,-99.99,,,-99.99,,2013-02-04 19:22:00,
2013-02-04 11:31:00,44.0,27.0,-100.00,WNW,289,2.0,5.0,51,-99.99,,,-99.99,,2013-02-04 19:31:00,
2013-02-04 11:41:00,44.0,27.0,-100.00,WNW,289,2.0,5.0,51,-99.99,,,-99.99,,2013-02-04 19:41:00,
2013-02-04 11:52:00,45.0,26.0,-100.00,WSW,253,3.0,6.0,46,-99.99,,,-99.99,,2013-02-04 19:52:00,
2013-02-04 12:01:00,45.0,26.0,-100.00,WSW,253,3.0,6.0,46,-99.99,,,-99.99,,2013-02-04 20:01:00,
2013-02-04 12:12:00,47.0,25.0,-100.00,West,265,2.0,5.0,41,-99.99,,,-99.99,,2013-02-04 20:12:00,
2013-02-04 12:21:00,47.0,25.0,-100.00,West,265,2.0,5.0,41,-99.99,,,-99.99,,2013-02-04 20:21:00,
2013-02-04 12:32:00,47.0,25.0,-100.00,West,265,2.0,5.0,41,-99.99,,,-99.99,,2013-02-04 20:32:00,
2013-02-04 12:42:00,47.0,25.0,-100.00,West,265,2.0,5.0,41,-99.99,,,-99.99,,2013-02-04 20:42:00,
2013-02-04 12:52:00,50.0,24.0,-100.00,WSW,247,2.0,4.0,36,-99.99,,,-99.99,,2013-02-04 20:52:00,
2013-02-04 13:02:00,50.0,24.0,-100.00,WSW,247,2.0,4.0,36,-99.99,,,-99.99,,2013-02-04 21:02:00,
2013-02-04 13:11:00,53.0,23.0,-100.00,WSW,258,1.0,4.0,31,-99.99,,,-99.99,,2013-02-04 21:11:00,
2013-02-04 13:22:00,53.0,23.0,-100.00,WSW,258,1.0,4.0,31,-99.99,,,-99.99,,2013-02-04 21:22:00,
2013-02-04 13:31:00,54.0,22.0,-100.00,NNW,332,2.0,4.0,28,-99.99,,,-99.99,,2013-02-04 21:31:00,
2013-02-04 13:42:00,54.0,22.0,-100.00,NNW,332,2.0,4.0,28,-99.99,,,-99.99,,2013-02-04 21:42:00,
2013-02-04 13:52:00,55.0,23.0,-100.00,WSW,257,2.0,4.0,28,-99.99,,,-99.99,,2013-02-04 21:52:00,
2013-02-04 14:02:00,55.0,23.0,-100.00,WSW,257,2.0,4.0,28,-99.99,,,-99.99,,2013-02-04 22:02:00,
2013-02-04 14:12:00,56.0,23.0,-100.00,West,272,3.0,6.0,28,-99.99,,,-99.99,,2013-02-04 22:12:00,
2013-02-04 14:21:00,56.0,23.0,-100.00,West,272,3.0,6.0,28,-99.99,,,-99.99,,2013-02-04 22:21:00,
2013-02-04 14:32:00,58.0,25.0,-100.00,SW,220,2.0,4.0,28,-99.99,,,-99.99,,2013-02-04 22:32:00,
2013-02-04 14:41:00,58.0,25.0,-100.00,SW,220,2.0,4.0,28,-99.99,,,-99.99,,2013-02-04 22:41:00,
2013-02-04 14:52:00,58.0,24.0,-100.00,WSW,251,3.0,6.0,27,-99.99,,,-99.99,,2013-02-04 22:52:00,
2013-02-04 15:01:00,58.0,24.0,-100.00,WSW,251,3.0,6.0,27,-99.99,,,-99.99,,2013-02-04 23:01:00,
2013-02-04 15:11:00,59.0,26.0,-100.00,West,263,3.0,6.0,29,-99.99,,,-99.99,,2013-02-04 23:11:00,
2013-02-04 15:21:00,59.0,26.0,-100.00,West,263,3.0,6.0,29,-99.99,,,-99.99,,2013-02-04 23:21:00,
2013-02-04 15:32:00,59.0,24.0,-100.00,WSW,256,2.0,6.0,26,-99.99,,,-99.99,,2013-02-04 23:32:00,
2013-02-04 15:41:00,59.0,24.0,-100.00,WSW,256,2.0,6.0,26,-99.99,,,-99.99,,2013-02-04 23:41:00,
2013-02-04 15:52:00,59.0,25.0,-100.00,WSW,246,4.0,6.0,27,-99.99,,,-99.99,,2013-02-04 23:52:00,
2013-02-04 16:01:00,59.0,25.0,-100.00,WSW,246,4.0,6.0,27,-99.99,,,-99.99,,2013-02-05 00:01:00,
2013-02-04 16:11:00,59.0,23.0,-100.00,WSW,254,4.0,7.0,25,-99.99,,,-99.99,,2013-02-05 00:11:00,
2013-02-04 16:21:00,59.0,23.0,-100.00,WSW,254,4.0,7.0,25,-99.99,,,-99.99,,2013-02-05 00:21:00,
2013-02-04 16:31:00,59.0,24.0,-100.00,WSW,248,3.0,5.0,26,-99.99,,,-99.99,,2013-02-05 00:31:00,
2013-02-04 16:41:00,59.0,24.0,-100.00,WSW,248,3.0,5.0,26,-99.99,,,-99.99,,2013-02-05 00:41:00,
2013-02-04 16:52:00,58.0,25.0,-100.00,WSW,248,3.0,4.0,28,-99.99,,,-99.99,,2013-02-05 00:52:00,
2013-02-04 17:01:00,58.0,25.0,-100.00,WSW,248,3.0,4.0,28,-99.99,,,-99.99,,2013-02-05 01:01:00,
2013-02-04 17:11:00,56.0,24.0,-100.00,SW,229,2.0,3.0,28,-99.99,,,-99.99,,2013-02-05 01:11:00,
2013-02-04 17:21:00,56.0,24.0,-100.00,SW,229,2.0,3.0,28,-99.99,,,-99.99,,2013-02-05 01:21:00,
2013-02-04 17:32:00,52.0,30.0,-100.00,SW,236,3.0,4.0,42,-99.99,,,-99.99,,2013-02-05 01:32:00,
2013-02-04 17:42:00,52.0,30.0,-100.00,SW,236,3.0,4.0,42,-99.99,,,-99.99,,2013-02-05 01:42:00,
2013-02-04 17:52:00,51.0,27.0,-100.00,SSW,192,0.0,2.0,39,-99.99,,,-99.99,,2013-02-05 01:52:00,
2013-02-04 18:01:00,51.0,27.0,-100.00,SSW,192,0.0,2.0,39,-99.99,,,-99.99,,2013-02-05 02:01:00,
2013-02-04 18:11:00,50.0,26.0,-100.00,South,171,1.0,2.0,40,-99.99,,,-99.99,,2013-02-05 02:11:00,
2013-02-04 18:21:00,50.0,26.0,-100.00,South,171,1.0,2.0,40,-99.99,,,-99.99,,2013-02-05 02:21:00,
2013-02-04 18:31:00,46.0,27.0,-100.00,East,99,4.0,5.0,48,-99.99,,,-99.99,,2013-02-05 02:31:00,
2013-02-04 18:41:00,46.0,27.0,-100.00,East,99,4.0,5.0,48,-99.99,,,-99.99,,2013-02-05 02:41:00,
2013-02-04 18:52:00,44.0,28.0,-100.00,East,97,6.0,9.0,53,-99.99,,,-99.99,,2013-02-05 02:52:00,
2013-02-04 19:01:00,44.0,28.0,-100.00,East,97,6.0,9.0,53,-99.99,,,-99.99,,2013-02-05 03:01:00,
2013-02-04 19:11:00,44.0,27.0,-100.00,East,99,6.0,8.0,51,-99.99,,,-99.99,,2013-02-05 03:11:00,
2013-02-04 19:21:00,44.0,27.0,-100.00,East,99,6.0,8.0,51,-99.99,,,-99.99,,2013-02-05 03:21:00,
2013-02-04 19:31:00,43.0,27.0,-100.00,East,96,6.0,8.0,52,-99.99,,,-99.99,,2013-02-05 03:31:00,
2013-02-04 19:41:00,43.0,27.0,-100.00,East,96,6.0,8.0,52,-99.99,,,-99.99,,2013-02-05 03:41:00,
2013-02-04 19:52:00,41.0,28.0,-100.00,SE,127,3.0,7.0,58,-99.99,,,-99.99,,2013-02-05 03:52:00,
2013-02-04 20:01:00,41.0,28.0,-100.00,SE,127,3.0,7.0,58,-99.99,,,-99.99,,2013-02-05 04:01:00,
2013-02-04 20:11:00,40.0,27.0,-100.00,SSE,167,1.0,2.0,61,-99.99,,,-99.99,,2013-02-05 04:11:00,
2013-02-04 20:21:00,40.0,27.0,-100.00,SSE,167,1.0,2.0,61,-99.99,,,-99.99,,2013-02-05 04:21:00,
2013-02-04 20:32:00,40.0,27.0,-100.00,SSE,167,1.0,2.0,61,-99.99,,,-99.99,,2013-02-05 04:32:00,
2013-02-04 20:41:00,40.0,27.0,-100.00,SSE,167,1.0,2.0,61,-99.99,,,-99.99,,2013-02-05 04:41:00,
2013-02-04 21:02:00,38.0,27.0,-100.00,East,93,0.0,2.0,63,-99.99,,,-99.99,,2013-02-05 05:02:00,
2013-02-04 21:11:00,37.0,27.0,-100.00,ESE,117,2.0,4.0,68,-99.99,,,-99.99,,2013-02-05 05:11:00,
2013-02-04 21:21:00,37.0,27.0,-100.00,ESE,117,2.0,4.0,68,-99.99,,,-99.99,,2013-02-05 05:21:00,
2013-02-04 21:31:00,36.0,28.0,-100.00,SE,138,1.0,2.0,72,-99.99,,,-99.99,,2013-02-05 05:31:00,
2013-02-04 21:42:00,36.0,28.0,-100.00,SE,138,1.0,2.0,72,-99.99,,,-99.99,,2013-02-05 05:42:00,
2013-02-04 21:52:00,36.0,28.0,-100.00,West,275,0.0,2.0,71,-99.99,,,-99.99,,2013-02-05 05:52:00,
2013-02-04 22:01:00,36.0,28.0,-100.00,West,275,0.0,2.0,71,-99.99,,,-99.99,,2013-02-05 06:01:00,
2013-02-04 22:11:00,38.0,27.0,-100.00,ENE,71,1.0,2.0,66,-99.99,,,-99.99,,2013-02-05 06:11:00,
2013-02-04 22:21:00,38.0,27.0,-100.00,ENE,71,1.0,2.0,66,-99.99,,,-99.99,,2013-02-05 06:21:00,
2013-02-04 22:31:00,37.0,27.0,-100.00,ENE,78,1.0,2.0,66,-99.99,,,-99.99,,2013-02-05 06:31:00,
2013-02-04 22:41:00,37.0,27.0,-100.00,ENE,78,1.0,2.0,66,-99.99,,,-99.99,,2013-02-05 06:41:00,
2013-02-04 22:52:00,36.0,27.0,-100.00,East,85,2.0,4.0,71,-99.99,,,-99.99,,2013-02-05 06:52:00,
2013-02-04 23:01:00,36.0,27.0,-100.00,East,85,2.0,4.0,71,-99.99,,,-99.99,,2013-02-05 07:01:00,
2013-02-04 23:11:00,36.0,27.0,-100.00,East,99,2.0,5.0,72,-99.99,,,-99.99,,2013-02-05 07:11:00,
2013-02-04 23:22:00,36.0,27.0,-100.00,East,99,2.0,5.0,72,-99.99,,,-99.99,,2013-02-05 07:22:00,
2013-02-04 23:31:00,34.0,27.0,-100.00,SSE,147,3.0,5.0,75,-99.99,,,-99.99,,2013-02-05 07:31:00,
2013-02-04 23:41:00,34.0,27.0,-100.00,SSE,147,3.0,5.0,75,-99.99,,,-99.99,,2013-02-05 07:41:00,
2013-02-04 23:52:00,34.0,28.0,-100.00,SE,127,1.0,2.0,76,-99.99,,,-99.99,,2013-02-05 07:52:00,